Location: College Park
(38.9810°N, 76.9370°W)
Time: 14:35:33
(UTC-05:00)

Vanguard 1 - Visible Passes

Search period start: 23 January 2018 00:00
Search period end: 02 February 2018 00:00
Orbit: 649 x 3834 km, 34.2° (Epoch: 23 January)

Date Brightness Start Highest point End Pass type
(mag) Time Alt. Az. Time Alt. Az. Time Alt. Az.
23 Jan 13.5 01:19:52 17° E 01:19:52 17° E 01:22:59 10° E visible
23 Jan 12.1 03:32:35 56° S 03:32:35 56° S 03:49:59 10° SE visible
23 Jan 12.9 05:45:19 19° WSW 05:54:56 33° SSW 06:13:08 10° SSE visible
24 Jan 13.3 01:39:50 21° ESE 01:39:50 21° ESE 01:44:36 10° ESE visible
24 Jan 12.2 03:52:33 51° SSW 03:52:33 51° SSW 04:10:57 10° SE visible
24 Jan 13.1 06:05:17 13° W 06:16:10 26° SW 06:32:16 10° S visible
25 Jan 13.1 01:59:48 26° ESE 01:59:48 26° ESE 02:06:07 10° ESE visible
25 Jan 12.3 04:12:32 43° SSW 04:13:28 43° SSW 04:31:34 10° SE visible
25 Jan 13.3 06:27:01 10° WSW 06:37:23 19° SW 06:50:25 10° S visible
26 Jan 13.0 02:19:49 29° SE 02:19:49 29° SE 02:27:29 10° ESE visible
26 Jan 12.5 04:32:33 34° SW 04:34:43 36° SSW 04:51:46 10° SSE visible
26 Jan 13.5 06:51:47 10° WSW 06:58:39 13° SW 07:06:30 10° SSW visible
27 Jan 12.9 02:39:51 32° SE 02:39:51 32° SE 02:48:39 10° SE visible
27 Jan 12.7 04:52:35 26° SW 04:56:00 28° SSW 05:11:25 10° SSE visible
28 Jan 12.8 02:59:54 32° SSE 02:59:54 32° SSE 03:09:31 10° SE visible
28 Jan 12.9 05:12:38 19° SW 05:17:17 22° SSW 05:30:18 10° S visible
29 Jan 12.8 03:19:58 31° S 03:19:58 31° S 03:30:01 10° SE visible
29 Jan 13.2 05:32:42 12° WSW 05:38:35 15° SW 05:47:54 10° S visible
30 Jan 12.9 03:40:02 27° S 03:40:02 27° S 03:50:04 10° SSE visible
31 Jan 13.7 01:47:23 11° SE 01:47:23 11° SE 01:47:46 10° SE visible
31 Jan 13.0 04:00:07 22° SSW 04:00:07 22° SSW 04:09:29 10° SSE visible
31 Jan 11.4 18:55:19 10° SSE 18:56:20 11° SSE 18:56:51 10° SE visible
01 Feb 13.6 02:07:27 12° SE 02:07:27 12° SE 02:08:29 10° SE visible
01 Feb 13.2 04:20:11 16° SSW 04:20:11 16° SSW 04:27:55 10° S visible
01 Feb 11.0 19:14:09 10° SSW 19:16:53 17° SSE 19:16:53 17° SSE visible
